Regional Weather Roundup
Issued by NWS Sterling, VA

Home | Current Version | Previous Version | Text Only | Print | Product List | Glossary On
Versions: 1 2 3 4 5 6 7 8 9 10 11 12 13 14 15 16 17 18 19 20 21 22 23 24 25 26 27 28 29 30 31 32 33 34 35 36 37 38 39 40 41 42 43 44 45 46 47 48 49 50
743
ASUS41 KLWX 210411
RWRLWX

REGIONAL WEATHER ROUNDUP
NATIONAL WEATHER SERVICE BALTIMORE MD/WASHINGTON DC
1200 AM EDT FRI JUL 21 2017

Note: "FAIR" indicates few or no clouds below 12,000 feet
with no significant weather and/or obstructions to visibility.
 TC=TEMPERATURE CELSIUS

 * =Non NWS site. Station does not report precipitation (e.g. rain,
    snow, etc.), thunder, or fog.

DCZ001-MDZ009-015-VAZ040>042-051-053>054-210500-
WASHINGTON METRO

CITY           SKY/WX    TMP DP  RH WIND       PRES   REMARKS
WASHINGTON NAT CLOUDY    86  78  77 S6        29.94R HX  98
DULLES         MOCLDY    85  67  54 NW9       29.95R
ANDREWS AFB    CLOUDY    83  73  71 SW7       29.93S
FT BELVOIR     CLOUDY    80  76  87 CALM      29.94R
QUANTICO       PTCLDY    83  79  88 NW7       29.94S HX  94
COLLEGE PARK*  CLOUDY    83  74  73 CALM      29.92S
LEESBURG*      CLOUDY    84  72  65 NW7       29.97S
MANASSAS*      MOCLDY    79  74  84 CALM      29.95R
GAITHERSBURG*  CLOUDY    79  73  82 NW3       29.97R

$$

MDZ006>007-011-014-210500-
BALTIMORE METRO

CITY           SKY/WX    TMP DP  RH WIND       PRES   REMARKS
BWI AIRPORT    CLOUDY    85  73  67 W7        29.93R HX  91
MD SCIENCE CTR   N/A     90  72  55 MISG      29.92R HX  97
MARTIN STATE   CLOUDY    86  79  79 S3        29.93R HX  99
ANNAPOLIS      PTCLDY    84  77  79 CALM      29.92S HX  94
FORT MEADE*    CLOUDY    77  72  83 CALM      29.95S

$$

MDZ012-015-019>023-210500-
MARYLAND EASTERN SHORE

CITY           SKY/WX    TMP DP  RH WIND       PRES   REMARKS
OCEAN CITY     PTCLDY    81  75  82 SW8       29.94S
SALISBURY      NOT AVBL
BAY BRIDGE AP* CLOUDY    84  75  74 S5        29.92S HX  92
CAMBRIDGE*     CLEAR     79  75  89 S3        29.93S
EASTON*        CLOUDY    84  76  78 SW5       29.96S HX  92

$$

MDZ017>025-210500-
SOUTHERN MARYLAND

CITY           SKY/WX    TMP DP  RH WIND       PRES   REMARKS
PATUXENT RIVER PTCLDY    83  75  77 SW8       29.93S HX  90
ST INIGOES     CLOUDY    84  76  76 S8        29.93S HX  93
LEONARDTOWN*   CLOUDY   N/A N/A N/A SW6       29.96R

$$

MDZ003>005-210500-
NORTH CENTRAL MARYLAND

CITY           SKY/WX    TMP DP  RH WIND       PRES   REMARKS
FREDERICK*     CLOUDY    81  68  65 CALM      29.97S
HAGERSTOWN APT PTCLDY    84  69  60 W5        29.96S
WESTMINSTER*   CLOUDY   N/A N/A N/A W5        29.97

$$

MDZ501>502-210500-
WESTERN MARYLAND

CITY           SKY/WX    TMP DP  RH WIND       PRES   REMARKS
OAKLAND*       PTCLDY    68  64  88 W13G22    30.10S
CUMBERLAND*    PTCLDY    79  68  69 CALM      30.03S

$$

VAZ025>031-210500-
SHENANDOAH VALLEY

CITY           SKY/WX    TMP DP  RH WIND       PRES   REMARKS
WINCHESTER*    CLEAR     79  66  65 SW3       29.99R
FRONT ROYAL*   PTCLDY    79  66  65 W3        29.98S
LURAY*         CLEAR     77  68  73 CALM      30.01R
NEW MARKET*    CLOUDY    73  65  75 CALM      30.00S
STAUNTON*      CLOUDY    73  69  88 CALM      30.05S
WAYNESBORO*    PTCLDY    73  70  89 S8        30.05S

$$

WVZ021-048>050-054>055-210500-
EASTERN WEST VIRGINIA PANHANDLE

CITY           SKY/WX    TMP DP  RH WIND       PRES   REMARKS
MARTINSBURG    CLOUDY    82  67  60 CALM      29.96S
PETERSBURG*    CLOUDY    76  70  80 CALM      30.03R

$$

VAZ036>039-050-210500-
CENTRAL FOOTHILLS

CITY           SKY/WX    TMP DP  RH WIND       PRES   REMARKS
CHARLOTTESVILL CLEAR     80  71  74 SW3       29.98R
CULPEPER*      CLEAR     76  74  94 CALM      29.97R
ORANGE*        CLEAR     72  70  94 CALM      29.97S
GORDONSVILLE*  PTCLDY    76  71  83 CALM      29.97S
WARRENTON*     CLEAR     75  70  85 CALM      29.95S

$$

VAZ055>057-210500-
NORTH AND CENTRAL PIEDMONT

CITY           SKY/WX    TMP DP  RH WIND       PRES   REMARKS
FREDERICKSBRG* PTCLDY    79  75  87 CALM      29.94R
STAFFORD*      CLEAR     76  76  99 CALM      29.99S

$$

NCZ024-NYZ072-PAZ021-071-VAZ022-071-210500-
OTHER REGIONAL OBSERVATIONS

CITY           SKY/WX    TMP DP  RH WIND       PRES   REMARKS
NEW YORK CITY  PTCLDY    79  68  69 VRB3      29.91S
PHILADELPHIA   CLOUDY    81  68  64 SE3       29.91S
PITTSBURGH     CLOUDY    75  72  90 SW5       30.01S
ROANOKE        CLOUDY    78  67  68 W6        30.07S
RICHMOND       CLOUDY    81  72  74 S3        29.96S
RALEIGH        MOCLDY    82  72  71 SW5       30.02R

$$

ANZ530>537-210500-
MARINE OBSERVATIONS

STATION/POSITION TIME  TEMP    WIND        PRES
                       AIR SEA DIR/SP/G
                 (UTC) (F)     (DEG/KT/KT) (MB)
THOMAS PT LIGHT  0400   84 82  210/ 11/ 12   N/A
BALT KEY BRIDGE  0348   87     220/  8/ 10 1012.7S
COVE POINT       0348   84     230/ 13/ 16 1014.0F
LEWISETTA        0348   83 86  230/  9/ 11 1013.7R
SOLOMONS ISLAND  0348   84 85  210/ 10/ 12   N/A
PINEY POINT      0348          230/ 14/ 16   N/A

$$





USA.gov is the U.S. government's official web portal to all federal, state and local government web resources and services.